Regional Weather Roundup
Issued by NWS Cleveland, OH

Home | Current Version | Previous Version | Graphics & Text | Print | Product List | Glossary On
Versions: 1 2 3 4 5 6 7 8 9 10 11 12 13 14 15 16 17 18 19 20 21 22 23 24 25 26 27 28 29 30 31 32 33 34 35 36 37 38 39 40 41 42 43 44 45 46 47 48 49 50
000
ASUS41 KCLE 220210
RWRCLE
OHIO REGIONAL WEATHER ROUNDUP
NATIONAL WEATHER SERVICE WILMINGTON, OH
1000 PM EDT THU AUG 21 2014

NOTE: "FAIR" INDICATES FEW OR NO CLOUDS BELOW 12,000 FEET WITH NO
SIGNIFICANT WEATHER AND/OR OBSTRUCTIONS TO VISIBILITY.

OHZ001>008-015>018-024>027-034-035-043-044-220300-
   NORTHWEST OHIO

CITY           SKY/WX    TMP DP  RH WIND       PRES   REMARKS
DEFIANCE       CLOUDY    75  71  87 S5        29.98R
FINDLAY        CLOUDY    73  69  87 S7        29.98F
TOLEDO EXPRESS CLOUDY    74  69  85 CALM      29.98R
TOLEDO METCALF CLOUDY    74  68  81 S3        29.98R
LIMA           CLOUDY    74  70  87 S6        30.00S
$$

OHZ009>014-019>023-028>033-038-089-220300-
   NORTHEAST OHIO

CITY           SKY/WX    TMP DP  RH WIND       PRES   REMARKS
CLE-HOPKINS    LGT RAIN  73  68  84 S6        30.02R
CLE-LAKEFRONT  CLOUDY    75  68  78 SW10G16   29.99R
CUY CO. ARPT   MOCLDY    73  72  94 W9        30.02R
LORAIN-ELYRIA  CLOUDY    75  69  81 SW5       30.02R
ASHTABULA      PTCLDY    69  67  93 CALM      30.01R
AKRON-CANTON   MOCLDY    73  67  81 SW8       30.03R
WOOSTER        MOCLDY    71  67  87 S5        30.04R
MANSFIELD      PTCLDY    69  67  93 S6        30.04S
YOUNGSTOWN     LGT RAIN  71  67  87 SW8       30.03R
$$

OHZ042-051>053-060>062-070>072-077>081-220300-
  SOUTHWEST OHIO

CITY           SKY/WX    TMP DP  RH WIND       PRES   REMARKS
CINC-COVINGTON MOCLDY    76  72  87 S5        30.01S
CINC-LUNKEN    PTCLDY    73  73 100 CALM      30.01R
HAMILTON       PTCLDY    76  73  91 CALM      30.01R
DAYTON         CLOUDY    75  72  90 S5        30.03R FOG
WRIGHT-PAT AFB PTCLDY    74  72  91 CALM      30.02R
DAYTON GENERAL PTCLDY    76  73  91 S6        30.01S
WILMINGTON     CLEAR     71  69  93 S5        30.03S FOG
$$

OHZ036-037-039>041-045>050-054>059-063>069-073>076-082>088-220300-
  CENTRAL AND SOUTHEAST OHIO

CITY           SKY/WX    TMP DP  RH WIND       PRES   REMARKS
COLUMBUS       CLOUDY    74  69  85 SE6       30.02S
OSU AIRPORT    CLEAR     71  69  93 SE5       30.03S
BOLTON FIELD   MOCLDY    70  70 100 CALM      30.04R FOG
RICKENBACK AFB PTCLDY    71  66  86 E5        30.03R
NEWARK         MOCLDY    67  66  97 CALM      30.04R FOG
MARION         PTCLDY    70  67  90 S6        30.02F
LANCASTER      CLOUDY    72  69  90 CALM      30.05R
ZANESVILLE     CLEAR     69  67  93 S3        30.05R
NEW PHILLY     MOCLDY    72  69  90 CALM      30.05R
$$



USA.gov is the U.S. government's official web portal to all federal, state and local government web resources and services.